Location: Hermaringen
(48.5952°N, 10.2585°E)
Time: 04:05:37
(UTC+00:00)

S-56A Canister/Altair - Pass Details

Date: 18 February 2026
Orbit: 633 x 2484 km, 38.9° (Epoch: 11 March)

Event Time Altitude Azimuth Distance (km) Brightness Sun altitude
Exits shadow 00:57:58 14° 110° (ESE) 3,697 11.0 -49.1°
Drops below altitude 10° 00:59:10 10° 108° (ESE) 4,072 11.3 -49.0°
Sets 01:03:19 0° 103° (ESE) 5,359 12.0 -48.6°
